MDT,Max TemperatureF,Mean TemperatureF,Min TemperatureF,Max Dew PointF,MeanDew PointF,Min DewpointF,Max Humidity, Mean Humidity, Min Humidity, Max Sea Level PressureIn, Mean Sea Level PressureIn, Min Sea Level PressureIn, Max VisibilityMiles, Mean VisibilityMiles, Min VisibilityMiles, Max Wind SpeedMPH, Mean Wind SpeedMPH, Max Gust SpeedMPH,PrecipitationIn, CloudCover, Events, WindDirDegrees
2013-4-1,53,48,44,43,39,36,82,65,51,30.01,29.98,29.94,15,11,8,25,10,31,0.01,7,Rain,128
2013-4-2,55,48,41,43,39,37,100,80,51,30.12,30.04,30.00,15,11,10,8,4,,0.06,5,,24
2013-4-3,62,48,35,45,37,28,93,71,27,30.23,30.17,30.12,15,12,10,9,3,,0.00,1,,134
2013-4-4,69,55,41,41,36,30,81,57,23,30.18,30.10,29.97,15,12,10,10,5,,0.00,3,,135
2013-4-5,60,52,42,45,37,34,93,58,36,30.08,29.99,29.92,15,11,6,29,6,37,0.00,5,Rain,142
2013-4-6,55,47,39,39,37,34,93,71,47,30.05,30.02,29.98,15,12,10,17,4,,0.00,2,,43
2013-4-7,62,50,39,41,36,28,93,66,27,29.99,29.85,29.61,15,12,10,12,4,,0.00,3,,134
2013-4-8,55,46,37,37,34,27,93,67,33,29.60,29.49,29.44,15,10,10,37,12,44,0.00,7,Rain,327
2013-4-9,39,34,28,28,21,16,93,61,41,30.12,29.83,29.53,15,10,1,28,16,34,0.00,6,Snow,333
2013-4-10,48,37,26,34,23,16,80,60,40,30.21,30.11,30.01,15,11,10,16,8,17,0.00,3,,99
2013-4-11,53,46,39,39,36,30,100,72,41,30.04,29.99,29.93,15,12,9,10,5,,0.18,5,Rain,17
2013-4-12,57,45,33,36,32,27,87,65,31,30.07,29.97,29.90,15,12,10,9,3,,0.00,0,,152
2013-4-13,60,50,39,37,31,28,71,57,33,29.91,29.77,29.56,15,12,10,23,5,,0.00,4,,128
2013-4-14,48,42,35,27,17,12,61,36,24,29.91,29.76,29.66,15,13,10,24,9,28,0.00,5,,327
2013-4-15,46,40,33,36,31,23,100,77,46,29.74,29.69,29.63,15,10,3,21,7,25,0.07,7,Rain,341
2013-4-16,42,38,33,34,30,21,93,74,49,29.92,29.77,29.67,15,10,5,17,5,24,0.01,6,Rain,228
2013-4-17,44,36,28,27,18,10,74,50,31,30.19,30.02,29.91,15,12,10,25,9,34,0.00,2,,330
2013-4-18,46,37,28,27,18,12,69,51,25,30.32,30.26,30.19,15,12,10,21,8,25,0.00,1,,352
2013-4-19,53,40,28,37,25,18,71,55,28,30.32,30.21,30.05,15,12,10,20,3,24,0.00,3,,145
2013-4-20,51,45,39,39,38,36,100,80,54,30.16,30.10,30.03,15,11,10,15,5,24,0.10,6,,163
2013-4-21,62,48,33,37,33,25,100,66,24,30.21,30.12,29.99,15,12,10,17,5,,0.00,2,,141
2013-4-22,53,46,39,39,31,19,87,57,28,30.13,30.06,30.01,15,11,10,23,9,32,0.00,2,,313
2013-4-23,48,40,32,27,19,12,60,44,24,30.27,30.17,30.13,15,12,10,20,12,25,0.00,1,,331
2013-4-24,57,45,33,30,23,16,65,46,21,30.25,30.17,30.12,15,12,10,13,4,,0.00,1,,323
2013-4-25,62,48,33,32,24,18,65,49,19,30.14,30.09,30.01,15,12,10,13,5,,0.00,1,,106
2013-4-26,68,52,35,37,28,18,66,39,17,30.29,30.26,30.22,15,13,10,10,5,,0.00,0,,280
2013-4-27,71,54,37,43,32,27,76,52,20,30.34,30.26,30.15,15,12,10,9,3,,0.00,0,,139
2013-4-28,80,62,44,43,35,30,66,47,18,30.15,30.08,29.96,15,12,9,12,4,,0.00,1,,135
2013-4-29,73,58,42,43,37,28,76,51,20,30.03,29.93,29.73,15,12,10,13,5,25,0.00,1,,349
2013-4-30,62,54,46,41,28,9,54,38,18,30.08,29.86,29.76,15,11,10,25,18,32,0.00,1,,314